Muscle Shoals, AL

4:39 PM CDT on May 22, 2017 (GMT -0500)
Northwest Alabama Regional

Weather History for KMSL - January, 2014

Change the Weather History Date:

Monday, January 27, 2014

  Actual Average Record
Temperature  
Mean Temperature 37 °F 42 °F  
Max Temperature 52 °F 52 °F 74 °F (1949)
Min Temperature 22 °F 32 °F -8 °F (1940)
Degree Days  
Heating Degree Days 28 23  
Month to date heating degree days 762 647  
Since 1 July heating degree days 2021 1883  
Cooling Degree Days 0 0  
Month to date cooling degree days 0 0  
Year to date cooling degree days 0 0  
Moisture  
Dew Point 9 °F    
Average Humidity 39    
Maximum Humidity 62    
Minimum Humidity 16    
Precipitation  
Precipitation 0.00 in 0.15 in 1.72 in (1952)
Month to date precipitation 1.70 3.97  
Year to date precipitation 1.70 3.97  
Snow  
Snow 0.00 in - - ()
Month to date snowfall 0.0  
Since 1 July snowfall T  
Snow Depth 0.00 in    
Sea Level Pressure  
Sea Level Pressure 30.13 in    
Wind  
Wind Speed 10 mph (North)    
Max Wind Speed 20 mph    
Max Gust Speed 28 mph    
Visibility 10 miles    
Events      
T = Trace of Precipitation, MM = Missing Value Source: NWS Daily Summary

Daily Weather History Graph

Daily Weather History Graph

Search for Another Location

Airport or City:

Trip Planner

Search our weather history database for the weather conditions in past years. The results will help you decide how hot, cold, wet, or windy it might be!

Date:

Astronomy

Jan. 27, 2014 Rise Set
Actual Time 6:52 AM CST 5:14 PM CST
Civil Twilight 6:25 AM CST 5:41 PM CST
Nautical Twilight 5:54 AM CST 6:11 PM CST
Astronomical Twilight 5:25 AM CST 6:41 PM CST
Moon 3:31 AM CST (1/27) 2:02 PM CST (1/27)
Length of Visible Light 11h 16m
Length of Day
10h 22m
Waning Crescent, 14% of the Moon is Illuminated
Jan 27
Waning Crescent
Jan 30
New
Feb 6
First Quarter
Feb 14
Full
Feb 22
Last Quarter

Hourly Weather History & Observations

Time (CST) Temp. Windchill Dew Point Humidity Pressure Visibility Wind Dir Wind Speed Gust Speed Precip Events Conditions
12:53 AM 51.1 °F - 30.9 °F 46% 29.84 in 10.0 mi SSW 6.9 mph - N/A   Clear
1:53 AM 50.0 °F - 30.9 °F 48% 29.85 in 10.0 mi SW 6.9 mph - N/A   Partly Cloudy
2:53 AM 46.9 °F - 30.9 °F 54% 29.87 in 10.0 mi WSW 4.6 mph - N/A   Clear
3:53 AM 45.0 °F - 30.9 °F 58% 29.87 in 10.0 mi Calm Calm - N/A   Clear
4:53 AM 43.0 °F - 30.9 °F 62% 29.89 in 10.0 mi Calm Calm - N/A   Clear
5:53 AM 45.0 °F 41.2 °F 32.0 °F 60% 29.94 in 10.0 mi NW 6.9 mph - N/A   Mostly Cloudy
6:53 AM 39.9 °F 32.1 °F 26.1 °F 58% 30.01 in 10.0 mi NNE 13.8 mph 23.0 mph N/A   Partly Cloudy
7:53 AM 36.0 °F 26.7 °F 21.0 °F 55% 30.10 in 10.0 mi North 15.0 mph 21.9 mph N/A   Clear
8:53 AM 35.1 °F 25.9 °F 16.0 °F 46% 30.14 in 10.0 mi NE 13.8 mph 23.0 mph N/A   Clear
9:53 AM 35.1 °F 25.9 °F -0.0 °F 23% 30.18 in 10.0 mi North 13.8 mph 24.2 mph N/A   Clear
10:53 AM 35.1 °F 25.5 °F 1.0 °F 24% 30.19 in 10.0 mi NNE 15.0 mph 23.0 mph N/A   Clear
11:53 AM 37.0 °F 30.4 °F -2.9 °F 18% 30.18 in 10.0 mi North 9.2 mph 17.3 mph N/A   Clear
12:53 PM 37.9 °F 31.5 °F -5.1 °F 16% 30.16 in 10.0 mi North 9.2 mph 18.4 mph N/A   Clear
1:53 PM 37.9 °F 30.5 °F -2.0 °F 18% 30.16 in 10.0 mi NNE 11.5 mph - N/A   Clear
2:53 PM 37.0 °F 29.3 °F -2.0 °F 19% 30.17 in 10.0 mi North 11.5 mph 19.6 mph N/A   Clear
3:53 PM 36.0 °F 29.0 °F -0.9 °F 21% 30.19 in 10.0 mi North 9.2 mph 19.6 mph N/A   Clear
4:53 PM 30.0 °F 20.0 °F -8.0 °F 19% 30.24 in 10.0 mi North 12.7 mph 19.6 mph N/A   Clear
5:53 PM 28.0 °F 20.0 °F -4.0 °F 25% 30.26 in 10.0 mi NNE 8.1 mph 18.4 mph N/A   Partly Cloudy
6:53 PM 26.1 °F 17.6 °F -2.0 °F 30% 30.30 in 10.0 mi NNE 8.1 mph 17.3 mph N/A   Clear
7:53 PM 25.0 °F 13.6 °F -0.9 °F 33% 30.32 in 10.0 mi North 12.7 mph 19.6 mph N/A   Clear
8:53 PM 24.1 °F 11.5 °F -0.9 °F 34% 30.33 in 10.0 mi NNE 15.0 mph 23.0 mph N/A   Scattered Clouds
9:53 PM 24.1 °F 13.7 °F -0.9 °F 34% 30.33 in 10.0 mi NNE 10.4 mph 18.4 mph N/A   Mostly Cloudy
10:53 PM 21.9 °F 9.8 °F -0.9 °F 37% 30.35 in 10.0 mi North 12.7 mph 23.0 mph N/A   Overcast
11:53 PM 21.9 °F 12.5 °F -0.9 °F 37% 30.35 in 10.0 mi NNE 8.1 mph 16.1 mph N/A   Overcast